Simultaneous Nadir Overpasses (SNOs) Predictions

Prediction of SNOs between GOES-17 and AQUA Satellite Orbit:

Table of predicted SNOs for the next 14.0 days since TLE Epoch: 5/2/2020
Index Date Time (GOES-17) GOES-17 Lat,Lon AQUA Lat,Lon Distance(km) Time Diff (sec)
1 05/02/2020 22:30:35 0.01,-137.19 0.77,-133.49 420.50 80
2 05/03/2020 10:51:50 -0.01,-137.20 0.31,-138.65 165.09 80
3 05/05/2020 10:36:58 -0.01,-137.19 -0.33,-135.69 170.32 80
4 05/05/2020 22:58:22 0.01,-137.18 -0.80,-140.88 421.17 80
5 05/07/2020 22:46:10 0.01,-137.16 -0.16,-137.92 86.54 80
6 05/09/2020 22:36:38 0.01,-137.14 0.49,-134.97 247.45 80
7 05/10/2020 10:57:52 -0.01,-137.14 0.65,-140.11 338.55 80
8 05/12/2020 10:45:40 -0.01,-137.11 -0.00,-137.15 5.26 80
9 05/14/2020 10:30:47 -0.00,-137.07 -0.60,-134.19 327.92 80
10 05/14/2020 22:52:11 0.00,-137.06 -0.46,-139.39 264.31 80




NCC Satellite Simultaneous Nadir Overpasses (SNOs) Prediction Service
